Location: Czu?�w
(50.1404°N, 18.9919°E)
Time: 03:35:59
(UTC+00:00)

GEOS 3 Rocket - Pass Details

Date: 27 October 2020
Orbit: 770 x 850 km, 115.0° (Epoch: 24 November)

Event Time Altitude Azimuth Distance (km) Brightness Sun altitude
Exits shadow 17:24:33 25° 133° (SE) 1,621 4.8 -19.1°
Maximum altitude 17:27:46 85° 47° (NE) 850 3.6 -19.6°
Drops below altitude 10° 17:33:11 10° 319° (NW) 2,480 6.7 -20.5°
Sets 17:35:32 0° 319° (NW) 3,422 7.6 -20.8°
